Location: Middlebury
(44.0153°N, 73.1678°W)
Time: 21:34:03
(UTC-04:00)

Tiangong - Visible Passes

Search period start: 13 April 2024 00:00
Search period end: 23 April 2024 00:00
Orbit: 371 x 381 km, 41.5° (Epoch: 13 April)

Date Brightness Start Highest point End Pass type
(mag) Time Alt. Az. Time Alt. Az. Time Alt. Az.
16 Apr -0.1 20:58:42 10° SSW 20:59:41 14° S 20:59:41 14° S visible
17 Apr -0.2 21:31:52 10° SW 21:33:04 19° SW 21:33:04 19° SW visible
18 Apr -0.8 20:29:54 10° SSW 20:32:26 23° SSE 20:34:09 15° ESE visible
18 Apr 0.6 22:05:44 10° WSW 22:06:12 13° WSW 22:06:12 13° WSW visible
19 Apr -1.7 21:03:28 10° WSW 21:06:25 42° SSE 21:07:05 35° SE visible
20 Apr -1.5 21:37:29 10° WSW 21:39:53 43° SW 21:39:53 43° SW visible
21 Apr -1.9 20:35:09 10° WSW 20:38:09 49° S 20:40:30 15° E visible
21 Apr 0.3 22:11:38 10° W 22:12:33 17° WSW 22:12:33 17° WSW visible
22 Apr -1.9 21:09:14 10° W 21:12:15 51° S 21:13:06 37° SE visible
